Regional Weather Roundup
Issued by NWS

Home | Current Version | Previous Version | Text Only | Print | Product List | Glossary On
Versions: 1 2 3 4 5 6 7 8 9 10 11 12 13 14 15 16 17 18 19 20 21 22 23 24 25 26 27 28 29 30 31 32 33 34 35 36 37 38 39 40 41 42 43 44 45 46 47 48 49 50
000
ASUS44 KJAN 282303
RWRMS

MISSISSIPPI HOURLY WEATHER ROUNDUP
NATIONAL WEATHER SERVICE JACKSON MS
600 PM CDT THU APR 28 2016

NOTE: "FAIR: INDICATES FEW OR NO CLOUDS BELOW 12,000 FEET WITH NO
SIGNIFICANT WEATHER AND/OR OBSTRUCTIONS TO VISIBILITY.

MSZ001>002-007>008-010>013-018>021-025>028-034>036-290000-
NORTHWEST MISSISSIPPI

CITY           SKY/WX    TMP DP  RH WIND       PRES   REMARKS
BATESVILLE     FAIR      83  52  33 CALM      29.93S
CLEVELAND      FAIR      85  58  39 CALM      29.90R
GREENWOOD      SUNNY     87  56  34 N3        29.90S
GREENVILLE     SUNNY     85  54  34 SE6       29.90R
OLIVE BRANCH   SUNNY     81  52  36 CALM      29.93S
OXFORD         FAIR      81  55  41 N5        29.95R
TUNICA         CLEAR     81  50  34 CALM      29.93R
WINONA         FAIR      85  55  36 CALM      29.91R
$$

MSZ003>006-009-014>017-022>024-029>033-037>039-290000-
NORTHEAST MISSISSIPPI

CITY           SKY/WX    TMP DP  RH WIND       PRES   REMARKS
COLUMBUS AFB   SUNNY     86  64  48 W2        29.91R
CORINTH        FAIR      82  55  39 NW6       29.92S
GOLDN TRIANGLE MOSUNNY   88  55  33 SW5       29.91R
TUPELO         SUNNY     85  55  35 S5        29.92R
$$

MSZ040-058-290000-
CENTRAL MISSISSIPPI

CITY           SKY/WX    TMP DP  RH WIND       PRES   REMARKS
JACKSON INTL   MOSUNNY   85  65  51 S6        29.90R
JACKSON HAWKNS MOSUNNY   86  59  39 W5        29.90R
MADISON        FAIR      77  70  78 CALM      29.90S
MERIDIAN KEY   SUNNY     84  66  54 S8        29.91S
MERIDIAN NAS   MOSUNNY   84  69  60 S5        29.92R
VICKSBURG TVR  SUNNY     87  63  44 S5        29.88S
VICKSBURG VKS  CLEAR     88  61  40 CALM      29.89R
$$

MSZ059>079-290000-
SOUTH MISSISSIPPI

CITY           SKY/WX    TMP DP  RH WIND       PRES   REMARKS
BROOKHAVEN     FAIR     N/A N/A N/A SE6       29.91S
COLUMBIA       FAIR      82  70  65 S6        29.95R
HATTIESBURG    SUNNY     84  68  58 S9        29.93R
MCCOMB         PTSUNNY   81  72  74 SE7       29.91S
NATCHEZ        MOSUNNY   82  70  65 SE8       29.89R
PINE BELT      MOSUNNY   82  66  57 S7        29.94R
$$

MSZ080>082-290000-
COASTAL MISSISSIPPI

CITY           SKY/WX    TMP DP  RH WIND       PRES   REMARKS
BAY ST LOUIS   MOSUNNY   75  64  69 S9        29.94
BILOXI         CLOUDY    77  70  78 S10       29.94R
PASCAGOULA     CLOUDY    78  66  66 S5        29.95R
GULFPORT       CLOUDY    77  68  73 S12       29.94R
$$




USA.gov is the U.S. government's official web portal to all federal, state and local government web resources and services.